Location: Detroit
(42.3310°N, 83.0460°W)
Time: 00:21:38
(UTC-04:00)

A-11 Canister half - Pass Details

Date: 13 February 2023
Orbit: 1526 x 1682 km, 47.3° (Epoch: 20 March)

Event Time Altitude Azimuth Distance (km) Brightness Sun altitude
Rises 10:26:24 0° 296° (WNW) 4,690 11.0 25.7°
Reaches altitude 10° 10:29:36 10° 290° (WNW) 3,715 10.6 26.1°
Maximum altitude 10:38:13 43° 223° (SW) 2,082 10.2 27.1°
Drops below altitude 10° 10:47:03 10° 156° (SSE) 3,800 12.7 28.0°
Sets 10:50:23 0° 150° (SSE) 4,805 12.9 28.3°
